EHI
52 51 52 53 51 47 43 42 45 46 47 50 48 40 32 27 23 19 14 12 11 10 8 5 5 6 6 6 5 4 3 3 1 1 2 7 8 4 1 1 0 0 1
51 50 48 48 49 47 43 42 44 46 45 45 44 39 31 25 22 18 13 11 11 11 9 7 6 7 8 7 5 4 3 3 2 1 3 7 8 5 3 2 1 1 2
49 46 43 44 48 49 44 41 41 41 39 39 39 37 30 24 21 17 13 11 11 11 11 10 8 9 9 8 6 4 2 2 1 1 3 7 7 5 3 2 2 2 2
46 44 41 43 48 49 45 40 37 35 35 36 36 35 29 23 19 16 13 12 13 13 12 11 9 9 9 8 6 4 2 0 0 0 1 3 4 3 2 1 2 2 1
48 47 44 43 46 47 43 38 34 32 31 33 33 32 27 20 15 14 13 14 14 14 13 12 9 7 6 5 4 3 1 0 0 0 0 1 2 2 1 1 1 2 1
51 49 46 43 43 43 39 35 32 30 30 30 30 27 23 15 10 10 12 14 13 13 12 11 7 4 3 2 2 1 0 0 0 0 0 0 1 1 1 0 1 1 0
48 45 43 42 40 36 33 33 34 32 32 31 29 26 20 13 7 5 8 11 12 12 12 10 6 3 2 1 1 0 0 0 0 0 0 0 1 3 2 1 0 0 0
40 39 38 38 35 31 30 33 35 34 32 31 30 28 23 14 7 3 4 8 12 13 12 11 9 5 3 1 1 0 0 0 0 0 0 0 1 3 3 1 0 0 0
33 33 34 34 32 30 30 32 34 33 29 28 28 26 23 16 8 2 3 8 12 13 13 11 9 6 2 0 1 1 1 0 0 0 0 0 0 1 1 0 0 0 0
28 28 30 32 32 33 33 33 31 29 25 23 22 22 20 15 8 2 3 8 11 12 12 10 7 3 1 0 1 2 2 1 0 0 0 0 0 0 0 0 0 0 0
25 26 30 32 32 34 37 35 28 23 21 19 19 18 17 13 7 2 2 6 9 10 11 10 6 1 0 0 1 2 2 1 1 0 0 0 0 0 1 1 0 0 0
27 28 30 31 31 33 36 34 25 19 17 16 15 14 12 10 6 2 1 2 4 7 9 8 4 1 0 0 0 1 1 0 0 0 0 0 0 0 1 2 1 1 1
32 32 31 30 30 31 30 27 20 14 12 11 10 10 9 8 6 2 0 0 1 3 5 4 1 0 0 0 0 0 0 0 0 0 0 0 0 0 1 2 3 3 2
31 31 29 26 26 25 23 19 13 10 8 7 7 8 8 7 5 2 1 0 0 0 1 1 0 0 0 0 0 0 0 0 0 0 0 0 0 0 0 1 3 3 3
26 25 23 20 19 19 17 12 8 6 5 4 5 6 6 5 3 1 1 0 0 0 0 1 1 1 0 0 0 0 1 1 1 0 0 0 0 0 0 1 2 3 3
21 20 16 14 15 15 13 9 5 3 2 1 2 2 2 2 1 0 0 0 0 0 1 2 2 2 1 1 1 1 2 2 2 1 1 1 1 1 0 0 1 2 3
15 14 11 11 13 13 10 7 3 1 1 0 0 0 0 0 0 0 0 0 0 0 1 2 3 2 2 2 2 2 2 2 2 2 2 2 2 2 1 1 0 1 2
10 8 7 9 11 10 7 5 4 3 3 2 1 0 0 0 0 0 0 0 0 0 0 1 2 1 1 1 1 1 1 1 1 1 1 2 2 2 2 1 0 0 1
9 7 6 8 9 6 4 3 3 4 5 5 3 1 0 1 1 0 0 0 0 0 0 0 1 1 1 2 1 0 0 0 0 0 0 1 1 1 1 1 0 0 0
7 5 4 6 6 5 3 3 4 5 6 5 4 2 1 1 1 0 0 0 0 0 0 1 1 1 2 2 1 0 0 0 0 0 0 0 0 0 0 0 0 0 0
5 3 2 3 4 5 5 5 5 5 5 4 3 2 1 1 1 0 0 0 1 0 1 2 2 1 1 1 1 0 0 0 0 0 0 0 0 0 0 0 0 0 0
6 4 2 2 3 3 5 6 6 5 4 3 3 1 0 0 0 0 0 0 0 0 1 1 1 0 0 0 0 0 0 0 0 0 0 0 0 0 0 0 0 0 0
4 3 3 2 1 1 2 5 5 5 4 3 2 1 0 0 0 0 0 0 0 0 0 0 0 0 0 0 0 0 0 0 0 0 0 0 0 0 0 0 0 0 0
2 2 1 1 0 0 1 3 4 4 3 3 2 1 0 0 0 0 0 0 0 0 0 0 0 0 0 0 0 0 0 0 0 0 0 0 0 0 0 0 0 0 0
1 1 0 0 0 0 1 2 3 3 2 2 2 1 0 0 0 0 0 0 0 0 0 0 0 0 0 0 0 0 0 0 0 0 0 0 0 0 0 0 0 0 0
0 0 0 0 0 0 1 2 3 2 1 1 1 0 0 0 0 0 0 0 0 0 0 0 0 0 0 0 0 0 0 0 0 0 0 0 0 0 0 0 0 0 0
Wind_Speed
10 10 8 9 8 8 7 7 7 6 6 6 6 6 6 6 5 5 5 5 5 4 4 4 4 3 2 2 2 2 2 1 1 1 1 2 2 2 4 3 4 5 7
10 9 8 8 8 8 8 7 7 6 6 7 6 6 7 6 6 5 6 5 5 5 5 4 4 4 3 2 2 2 1 1 2 1 1 1 2 3 4 4 4 6 5
10 10 9 9 9 8 8 7 7 7 7 7 7 7 6 6 6 6 5 4 5 5 5 4 4 3 3 2 2 2 1 2 2 2 2 2 2 3 3 4 5 3 5
9 9 9 8 8 8 7 7 8 8 7 7 7 6 6 6 6 5 5 4 4 4 4 4 4 4 3 3 3 2 2 2 1 2 2 2 2 3 2 3 3 2 3
8 8 8 8 7 7 7 8 7 7 8 7 6 6 6 6 6 6 5 5 4 4 3 3 4 3 3 2 2 1 1 2 2 2 2 2 2 1 2 2 2 2 3
6 7 7 7 7 7 8 7 7 7 6 6 6 6 7 6 6 7 5 3 3 4 4 3 4 4 5 5 4 2 1 2 2 2 2 2 1 1 1 1 1 1 2
5 4 5 7 7 7 8 7 7 6 6 6 6 6 5 4 7 7 6 3 4 4 4 4 5 5 6 5 6 6 5 6 5 2 3 3 2 2 1 1 2 2 2
4 4 5 6 6 6 6 6 6 5 5 5 5 5 5 6 8 8 7 5 4 4 4 4 4 2 3 3 5 5 5 5 6 6 4 3 3 2 2 2 3 3 4
4 4 5 5 6 6 6 5 5 4 4 5 5 5 5 5 8 9 7 4 3 4 4 3 3 3 2 2 2 3 3 3 5 6 6 5 4 3 1 1 2 2 4
5 4 4 4 4 5 4 5 4 4 4 4 4 4 4 4 7 8 8 4 4 4 3 3 3 3 3 4 3 3 3 3 3 3 4 5 5 5 6 4 3 3 3
3 4 4 4 4 4 4 4 4 4 3 3 3 3 3 3 5 6 7 3 3 3 3 3 3 6 6 5 4 3 3 2 2 3 3 3 4 4 4 4 4 3 4
2 3 3 3 4 4 4 4 3 3 3 3 2 2 2 2 3 5 7 6 3 2 2 1 1 4 6 6 4 3 2 2 2 3 3 2 2 2 3 4 5 5 5
2 3 3 3 2 3 4 4 3 3 2 2 2 2 2 2 2 4 6 5 4 2 0 1 1 2 3 2 4 3 2 2 2 3 3 3 2 2 2 2 3 4 5
3 3 3 3 4 4 3 3 3 2 1 1 2 2 2 2 2 2 2 2 3 2 2 1 1 1 1 1 2 2 2 2 2 3 2 2 2 2 2 2 2 2 3
2 2 4 5 5 5 6 5 4 4 2 2 2 2 2 2 1 2 2 2 2 2 2 1 1 1 1 1 1 2 2 2 2 3 3 2 2 2 2 2 2 2 3
1 2 3 4 5 6 6 6 10 8 9 10 8 6 5 5 5 7 6 5 4 3 3 1 1 1 1 1 1 1 1 1 1 1 2 2 3 3 3 3 2 2 2
2 2 2 3 5 5 5 6 5 6 9 10 9 9 8 7 8 7 7 7 6 5 3 1 1 1 1 2 2 2 1 1 1 1 2 2 2 3 3 3 3 2 3
3 3 3 3 4 4 4 5 5 5 5 5 7 9 9 9 9 8 7 6 4 3 2 2 2 2 2 2 3 3 3 3 2 2 2 2 2 3 3 3 3 3 3
3 2 3 4 4 4 4 4 5 6 5 5 5 6 7 7 8 8 6 3 3 3 2 3 3 3 3 3 3 3 3 3 4 3 3 4 4 4 4 4 4 5 4
4 5 4 4 4 4 4 5 5 5 5 5 5 4 3 4 4 5 4 4 4 5 5 4 4 5 5 5 4 4 4 4 5 5 5 5 5 5 5 6 5 5 5
5 6 6 4 4 4 4 5 5 5 5 6 5 5 4 3 5 5 5 5 5 5 6 6 6 6 6 5 5 6 6 6 6 6 5 5 5 5 5 5 6 5 5
5 5 5 6 6 6 5 5 6 6 7 8 6 7 8 6 6 7 6 6 6 6 6 5 6 6 6 6 6 6 6 6 7 7 7 6 6 6 6 6 6 5 5
6 7 7 7 7 7 7 7 7 7 7 7 7 6 7 7 7 7 6 6 6 6 6 6 6 6 6 6 6 6 6 6 7 8 8 7 7 6 6 6 7 7 6
7 8 8 8 7 7 8 7 7 8 8 8 8 7 7 7 7 7 7 6 6 6 6 6 6 8 9 7 6 6 6 7 8 7 9 8 8 7 6 6 7 7 6
8 8 8 7 8 7 7 7 8 8 8 8 7 7 6 6 7 7 6 6 6 6 7 6 5 7 9 10 9 8 8 8 7 8 8 7 8 7 7 8 7 7 7
8 9 8 8 8 8 8 8 8 8 8 7 7 6 6 6 7 6 6 6 5 5 6 6 8 10 10 9 10 10 8 9 9 9 8 7 7 6 7 7 9 7 7
Wind_Direction
184 189 188 184 187 189 196 194 187 181 175 175 177 177 181 181 182 191 210 191 196 211 222 205 211 231 254 275 255 239 217 184 229 256 149 131 152 144 163 218 197 187 204
181 184 189 187 187 191 195 192 184 181 183 181 181 182 187 188 186 192 214 200 198 209 222 218 208 215 213 248 284 275 236 178 193 236 198 175 185 186 195 221 233 222 215
177 182 187 191 189 191 191 186 184 185 189 185 185 186 190 186 187 198 207 207 204 205 207 206 204 215 212 228 248 276 283 251 193 222 235 203 207 204 199 233 252 246 243
175 180 186 192 189 189 187 186 187 187 189 187 187 186 188 190 192 198 203 209 206 206 204 202 208 208 208 224 233 240 265 288 259 241 244 220 211 206 185 229 256 244 254
174 181 186 189 186 186 187 190 188 187 191 187 186 187 190 195 199 191 198 204 202 208 207 205 209 195 186 198 241 243 273 276 276 255 254 240 208 197 207 236 249 250 253
175 183 182 185 186 186 185 186 184 186 188 183 187 190 196 203 180 175 189 202 199 209 210 210 204 196 189 191 190 183 192 245 280 302 292 292 259 220 224 273 287 290 283
172 179 178 183 187 186 185 178 179 181 181 182 186 189 189 179 163 165 181 201 213 214 213 215 233 224 197 197 204 215 225 228 219 238 276 292 308 322 307 296 301 298 279
170 186 181 183 184 180 181 178 173 171 177 183 186 186 180 182 174 172 180 208 229 225 222 221 226 236 233 214 212 211 217 220 219 220 232 253 275 298 284 269 270 272 266
178 185 181 181 178 175 177 176 172 174 178 183 183 184 186 181 178 176 180 204 221 229 231 228 215 203 209 217 237 235 224 230 225 215 213 218 220 237 246 281 273 275 277
176 175 162 163 168 166 167 167 166 170 179 181 180 181 182 182 181 183 187 213 223 221 218 216 215 206 194 193 214 235 239 252 268 222 217 228 232 235 226 223 245 261 274
160 151 142 150 154 151 147 148 152 163 169 175 172 166 169 174 170 181 191 220 238 225 219 210 197 184 187 192 205 221 233 262 276 260 237 231 230 228 219 216 217 230 255
139 141 142 149 166 153 140 145 153 164 166 169 164 159 151 144 147 180 194 215 255 272 264 245 145 161 183 195 200 218 234 257 270 274 264 251 241 230 222 215 215 219 227
120 131 139 145 138 123 138 151 155 158 171 171 166 168 161 138 130 157 184 210 236 245 352 55 96 143 156 186 223 234 243 243 250 257 263 268 264 262 262 239 225 224 238
121 131 143 135 112 99 98 102 107 112 140 150 146 145 129 110 105 125 149 186 208 222 238 219 151 154 191 216 194 207 215 235 249 258 271 279 291 296 283 267 256 249 250
142 149 136 122 109 95 81 58 74 69 71 127 124 128 126 106 58 95 150 162 180 193 184 184 200 179 200 226 228 214 209 214 239 261 279 292 298 296 297 301 285 277 266
114 129 129 124 121 117 109 90 61 70 71 72 76 88 78 87 95 86 78 79 82 102 121 108 73 30 310 282 259 246 234 258 269 270 284 298 301 301 299 297 291 281 283
101 104 116 121 124 129 128 121 107 78 69 66 67 75 85 85 80 82 82 76 65 78 84 63 41 15 351 351 352 359 3 344 309 289 281 287 293 294 295 296 296 293 288
104 111 118 119 119 122 128 131 126 119 103 83 69 74 81 79 74 73 78 80 65 60 53 27 16 16 15 9 7 0 357 354 350 339 330 319 306 299 298 300 301 304 302
96 104 112 112 112 114 117 119 115 113 110 105 94 75 71 76 69 63 64 57 57 58 47 38 31 29 27 22 18 11 4 358 357 354 350 338 326 318 313 308 305 303 291
98 88 92 99 104 107 104 102 101 103 102 98 92 81 76 82 74 63 53 44 42 41 45 46 40 36 30 23 18 14 7 2 358 355 350 339 329 325 319 311 307 306 299
91 94 90 89 94 93 94 94 95 96 95 94 88 80 67 73 73 68 61 50 44 43 42 39 39 35 31 24 17 12 12 9 5 356 346 336 332 327 321 316 313 310 308
81 84 80 74 76 76 78 81 82 85 87 86 83 73 62 61 61 61 58 54 48 42 38 38 42 38 31 24 18 14 11 5 357 348 339 331 326 322 320 318 318 317 312
68 75 77 77 77 73 69 70 74 75 74 73 74 72 67 66 65 61 59 55 53 49 42 42 43 38 29 27 26 23 14 1 345 339 333 327 323 321 321 321 321 320 320
68 71 72 73 73 73 74 73 73 74 74 72 70 68 66 63 62 59 55 51 51 50 47 45 44 38 33 30 31 29 16 357 342 333 327 317 315 316 317 314 314 319 319
67 70 70 71 73 74 74 74 74 74 75 74 73 74 73 69 66 63 57 52 51 52 48 47 43 37 35 34 30 22 6 354 344 331 315 308 309 312 314 315 316 314 316
67 68 67 65 65 67 69 71 72 73 74 72 68 67 68 67 65 60 54 48 45 45 42 43 39 39 36 33 27 18 2 348 339 327 311 301 302 310 318 312 315 315 317